Location: Oberkirch
(48.5323°N, 8.0787°E)
Time: 17:16:57
(UTC+00:00)

Cosmos 1782 Rocket - Pass Details

Date: 08 November 2025
Orbit: 599 x 626 km, 82.5° (Epoch: 09 December)

Event Time Altitude Azimuth Distance (km) Brightness Sun altitude
Rises 05:31:44 0° 341° (NNW) 2,909 6.7 -9.1°
Reaches altitude 10° 05:34:11 10° 331° (NNW) 1,994 5.8 -8.7°
Maximum altitude 05:38:01 30° 271° (W) 1,121 4.4 -8.1°
Drops below altitude 10° 05:41:47 10° 210° (SSW) 1,964 6.0 -7.5°
Sets 05:44:11 0° 200° (SSW) 2,859 7.0 -7.1°
